Home > Weather > Bretten > Past weeks

Flag for Germany Past Weather in Bretten, Baden-Württemberg, Germany — Yesterday and Last 2 Weeks

Now
77 °F

Passing clouds.


Feels Like: 78 °F
Forecast: 58 / 78 °F
Wind: 12 mph from West

Location: Mannheim City

Current Time: Jul 27, 2016 at 9:16:02 PM

Latest Report: Jul 27, 2016 at 8:20 PM


Visibility: N/A

Pressure: 30.01 "Hg

Humidity: 44%

Dew Point: 54 °F

Location of BrettenLocation

Past Weather in Bretten — Graph

°F

Bretten Temperature Yesterday

Maximum temperature yesterday: 84 °F (at 1:20 PM)
Minimum temperature yesterday: 64 °F (at 5:50 AM)
Average temperature yesterday: 76 °F

High & Low Weather Summary for the Past Weeks

 TemperatureHumidityPressure
High95 °F (Jul 20, 4:50 PM)100% (Jul 13, 5:50 AM)30.33 "Hg (Jul 13, 5:50 AM)
Low55 °F (Jul 16, 7:20 AM)20% (Jul 20, 5:50 PM)29.89 "Hg (Jul 12, 7:50 PM)
Average74 °F63%30.08 "Hg
* Reported Jul 12 7:20 PM — Jul 27 7:50 PM, Bretten, Weather by CustomWeather, © 2016

Note: Actual official high and low records may vary slightly from our data, if they occured in-between our weather recording intervals... More about our weather records

Advertising

Bretten Weather History for the Previous 24 Hours

Scroll right to see more
 ConditionsComfort  
Time TempWeatherWind HumidityBarometerVisibility
7:50 PM
Wed, Jul 27
77 °FPassing clouds.9 mph44%30.01 "HgN/A
7:20 PM79 °FPassing clouds.12 mph42%30.01 "HgN/A
6:50 PM79 °FPassing clouds.8 mph42%30.01 "HgN/A
6:20 PM79 °FPassing clouds.9 mph45%30.01 "HgN/A
5:50 PM79 °FPassing clouds.13 mph45%30.01 "HgN/A
5:20 PM81 °FPassing clouds.9 mph45%30.01 "HgN/A
4:50 PM81 °FPassing clouds.12 mph42%30.01 "HgN/A
4:20 PM81 °FPassing clouds.7 mph42%30.01 "HgN/A
3:50 PM79 °FPassing clouds.9 mph45%30.01 "HgN/A
3:20 PM79 °FPassing clouds.9 mph45%30.01 "HgN/A
2:50 PM79 °FScattered clouds.9 mph48%30.04 "HgN/A
2:20 PM77 °FScattered clouds.8 mph47%30.04 "HgN/A
1:50 PM77 °FScattered clouds.10 mph51%30.04 "HgN/A
1:20 PM77 °FScattered clouds.9 mph51%30.04 "HgN/A
12:50 PM77 °FPassing clouds.8 mph54%30.04 "HgN/A
12:20 PM75 °FScattered clouds.6 mph57%30.07 "HgN/A
11:50 AM73 °FScattered clouds.7 mph65%30.07 "HgN/A
11:20 AM73 °FScattered clouds.10 mph65%30.07 "HgN/A
10:50 AM73 °FScattered clouds.8 mph65%30.07 "HgN/A
10:20 AM75 °FScattered clouds.7 mph65%30.07 "HgN/A
9:50 AM72 °FScattered clouds.5 mph78%30.07 "HgN/A
9:20 AM70 °FScattered clouds.3 mph83%30.07 "HgN/A
8:50 AM70 °FBroken clouds.6 mph83%30.07 "HgN/A
8:20 AM68 °FScattered clouds.5 mph94%30.07 "HgN/A
7:50 AM68 °FPartly sunny.3 mph94%30.07 "HgN/A
7:20 AM68 °FPartly sunny.2 mph88%30.07 "HgN/A
6:50 AM68 °FPassing clouds.No wind94%30.07 "HgN/A
6:20 AM66 °FPassing clouds.2 mph100%30.04 "HgN/A
5:50 AM66 °FPassing clouds.2 mph100%30.04 "HgN/A
5:20 AM66 °FPassing clouds.1 mph94%30.04 "HgN/A
9:20 PM
Tue, Jul 26
73 °FSunny.6 mph74%30.09 "Hg10 mi
Weather by CustomWeather, © 2016

See weather overviewHow to use our weather pages